Flag for Oman Weather past 2 weeks in Salalah, Oman

Now
84 °F

Passing clouds.


Feels Like: 90 °F
Forecast: 84 / 96 °F
Wind: 8 mph from South

Location: Salalah Airport


UV Index: 10 (Very high)

Visibility: N/A


Pressure: 29.92 "Hg

Humidity: 66%

Dew point: 72 °F

Location of SalalahLocation

Historic Weather in Salalah

°F

Salalah temperature yesterday

Maximum temperature yesterday: 86 °F (at 10:50 AM)
Minimum temperature yesterday: 77 °F (at 4:50 AM)
Average temperature yesterday: 82 °F

Past Weeks' High & Low Weather Summary

 TemperatureHumidityPressure
High97 °F (Apr 6, 2:50 PM)84% (Apr 13, 12:50 AM)30.04 "Hg (Apr 13, 12:50 AM)
Low73 °F (Apr 8, 4:50 AM)7% (Apr 6, 9:50 PM)29.77 "Hg (Apr 17, 2:50 PM)
Average82 °F60%29.90 "Hg
* Reported Apr 4 10:50 AM — Apr 19 10:50 AM, Salalah, Weather by CustomWeather, © 2014

Note: Actual official high and low records may vary slightly from our data, if they occured in-between our weather recording intervals... More about our weather records

Advertising

Historic Weather Conditions — Data for Previous 24 hours

 ConditionsComfort  
Time TempWeatherWind HumidityBarometerVisibility
10:50 AM
Apr 19
84 °FPassing clouds.8 mph66%29.92 "HgN/A
9:50 AM84 °FPassing clouds.6 mph66%29.92 "HgN/A
8:50 AM82 °FWarm.2 mph66%29.92 "HgN/A
7:50 AM81 °FWarm.2 mph66%29.89 "HgN/A
6:50 AM77 °FSunny.5 mph65%29.89 "Hg10 mi
4:50 AM77 °FPassing clouds.3 mph83%29.83 "HgN/A
3:50 AM77 °FPassing clouds.No wind83%29.83 "HgN/A
2:50 AM77 °FClear.2 mph83%29.83 "Hg10 mi
1:50 AM79 °FClear.No wind84%29.86 "Hg10 mi
12:50 AM79 °FWarm.No wind84%29.86 "HgN/A
11:50 PM
Apr 18
81 °FWarm.No wind79%29.89 "HgN/A
10:50 PM81 °FWarm.3 mph79%29.89 "HgN/A
9:50 PM81 °FPassing clouds.5 mph79%29.92 "HgN/A
8:50 PM81 °FWarm.5 mph79%29.89 "HgN/A
7:50 PM82 °FPassing clouds.8 mph74%29.89 "HgN/A
6:50 PM82 °FClear.8 mph74%29.89 "Hg10 mi
5:50 PM84 °FSunny.12 mph66%29.86 "Hg10 mi
4:50 PM84 °FWarm.14 mph70%29.86 "HgN/A
3:50 PM86 °FLight rain. Cloudy.N/A66%29.86 "HgN/A
2:50 PM86 °FPassing clouds.13 mph66%29.86 "HgN/A
1:50 PM86 °FPassing clouds.15 mph66%29.86 "HgN/A
12:50 PM86 °FWarm.15 mph62%29.89 "HgN/A
11:50 AM86 °FWarm.16 mph66%29.89 "HgN/A
Weather by CustomWeather, © 2014

See weather overview